FW7124 Weather Reports


time (UTC)temp
F
wind
direction
speed
knots
gust
knots
rain 1hr
in
rain 24hr
in
rain mn
in
humidity
%
barometer
mb
20260507112538 61 140 0.0 4.3 0.00 0.00 0.00 49 1016.4
20260507112021 61 130 0.9 2.6 0.00 0.00 0.00 48 1016.4
20260507110539 58 126 0.0 0.9 0.00 0.00 0.00 53 1016.4
20260507105536 58 133 0.0 1.7 0.00 0.00 0.00 56 1016.6
20260507104538 58 134 0.0 2.6 0.00 0.00 0.00 55 1016.6
20260507103536 59 26 0.0 2.6 0.00 0.00 0.00 51 1016.7
20260507102539 61 110 0.9 7.0 0.00 0.00 0.00 49 1016.8
20260507101533 61 148 0.9 6.1 0.00 0.00 0.00 47 1016.8
20260507095535 60 64 0.0 1.7 0.00 0.00 0.00 54 1017.0
20260507094533 59 86 0.0 3.5 0.00 0.00 0.00 56 1016.9
20260507093533 59 81 0.9 4.3 0.00 0.00 0.00 59 1017.0
20260507093026 59 109 0.9 3.5 0.00 0.00 0.00 59 1017.0
20260507092022 58 74 0.9 4.3 0.00 0.00 0.00 62 1017.0
20260507091015 57 125 0.9 4.3 0.00 0.00 0.00 65 1017.0
20260507085532 56 116 0.9 4.3 0.00 0.00 0.00 67 1017.1
20260507084527 56 164 0.9 2.6 0.00 0.00 0.00 72 1017.1
20260507083524 55 152 0.9 2.6 0.00 0.00 0.00 75 1017.0
20260507082523 54 70 0.0 1.7 0.00 0.00 0.00 78 1016.9
20260507081522 53 94 0.0 1.7 0.00 0.00 0.00 80 1016.9
20260507080521 51 127 0.0 1.7 0.00 0.00 0.00 82 1017.0
20260507075522 50 109 0.0 1.7 0.00 0.00 0.00 84 1016.9
20260507073519 48 94 0.0 1.7 0.00 0.00 0.00 87 1016.9
20260507072517 47 126 0.0 1.7 0.00 0.00 0.00 90 1016.8
20260507071517 45 112 0.0 1.7 0.00 0.00 0.00 91 1016.8
20260507070518 44 136 0.0 1.7 0.00 0.00 0.00 92 1016.7
20260507065515 44 136 0.0 1.7 0.00 0.00 0.00 94 1016.9
20260507064515 43 5 0.0 0.0 0.00 0.00 0.00 94 1016.9
20260507063514 42 5 0.0 0.0 0.00 0.00 0.00 95 1016.9
20260507062513 41 5 0.0 0.0 0.00 0.00 0.00 95 1016.8
20260507061514 40 5 0.0 0.0 0.00 0.00 0.00 95 1016.7
20260507060511 39 5 0.0 0.0 0.00 0.00 0.00 94 1016.6
20260507055511 39 5 0.0 0.0 0.00 0.00 0.00 93 1016.6
20260507054512 38 5 0.0 0.0 0.00 0.00 0.00 93 1016.5
20260507053511 38 5 0.0 0.0 0.00 0.00 0.00 92 1016.5
20260507052511 38 5 0.0 0.0 0.00 0.00 0.00 92 1016.4
20260507051728 38 5 0.0 0.0 0.00 0.00 0.00 92 1016.3
20260507051615 38 5 0.0 0.0 0.00 0.00 0.00 92 1016.4
20260507045518 38 5 0.0 0.0 0.00 0.00 0.00 92 1016.3
20260507044508 38 5 0.0 0.0 0.00 0.00 0.00 91 1016.2
20260507043509 38 5 0.0 0.0 0.00 0.00 0.00 91 1016.3
20260507042508 38 5 0.0 0.0 0.00 0.00 0.00 91 1016.3
20260507041508 38 5 0.0 0.0 0.00 0.00 0.00 91 1016.3
20260507040507 38 5 0.0 0.0 0.00 0.00 0.00 92 1016.4
20260507035502 38 5 0.0 0.0 0.00 0.00 0.00 91 1016.4
20260507034459 38 5 0.0 0.0 0.00 0.00 0.00 90 1016.4
20260507033459 39 5 0.0 0.0 0.00 0.00 0.00 90 1016.3
20260507032941 39 5 0.0 0.0 0.00 0.00 0.00 90 1016.3
20260507031455 39 5 0.0 0.0 0.00 0.00 0.00 90 1016.4
20260507030453 39 5 0.0 0.0 0.00 0.00 0.00 90 1016.4
20260507025936 39 5 0.0 0.0 0.00 0.00 0.00 90 1016.4
20260507024453 39 5 0.0 0.0 0.00 0.00 0.00 90 1016.3
20260507023449 39 5 0.0 0.0 0.00 0.00 0.00 90 1016.3
20260507022449 39 5 0.0 0.0 0.00 0.00 0.00 89 1016.3
20260507021450 40 5 0.0 0.0 0.00 0.00 0.00 89 1016.4
20260507020449 40 5 0.0 0.0 0.00 0.00 0.00 89 1016.3
20260507015445 40 5 0.0 0.0 0.00 0.00 0.00 89 1016.1
20260507014445 40 5 0.0 0.0 0.00 0.00 0.00 89 1016.2
20260507013445 40 5 0.0 0.0 0.00 0.00 0.00 89 1016.2
20260507012443 40 5 0.0 0.0 0.00 0.00 0.00 88 1016.1
20260507011439 40 5 0.0 0.0 0.00 0.00 0.00 88 1016.1
20260507010436 41 5 0.0 0.0 0.00 0.00 0.00 88 1016.1
20260507005437 41 5 0.0 0.0 0.00 0.00 0.00 88 1016.2
20260507004435 41 5 0.0 0.0 0.00 0.00 0.00 87 1016.1
20260507003433 41 5 0.0 0.0 0.00 0.00 0.00 87 1016.1
20260507002432 42 5 0.0 0.0 0.00 0.00 0.00 87 1016.2
20260507001431 42 5 0.0 0.0 0.00 0.00 0.00 85 1016.2
20260507000432 42 5 0.0 0.0 0.00 0.00 0.00 85 1016.2
20260506235917 42 5 0.0 0.0 0.00 0.00 0.00 84 1016.2
20260506234430 43 5 0.0 0.0 0.00 0.00 0.00 83 1016.1
20260506233430 43 5 0.0 0.0 0.00 0.00 0.00 82 1016.0
20260506232428 43 5 0.0 0.0 0.00 0.00 0.00 81 1016.0
20260506231429 44 11 0.0 0.0 0.00 0.00 0.00 81 1016.0
20260506225425 44 15 0.0 0.0 0.00 0.00 0.00 80 1015.9
20260506224425 45 18 0.0 0.0 0.00 0.00 0.00 79 1015.9
20260506223905 45 0 0.0 0.0 0.00 0.00 0.00 77 1015.8
20260506222423 45 17 0.0 0.0 0.00 0.00 0.00 77 1015.8
20260506221900 46 12 0.0 0.0 0.00 0.00 0.00 75 1015.7
20260506220415 46 17 0.0 0.0 0.00 0.00 0.00 74 1015.8
20260506215900 47 0 0.0 0.0 0.00 0.00 0.00 72 1015.6
20260506214415 47 0 0.0 0.0 0.00 0.00 0.00 72 1015.6
20260506213413 48 17 0.0 0.0 0.00 0.00 0.00 72 1015.6
20260506212411 48 0 0.0 0.0 0.00 0.00 0.00 72 1015.5
20260506211904 49 5 0.0 0.0 0.00 0.00 0.00 71 1015.5
20260506210852 49 5 0.0 0.0 0.00 0.00 0.00 70 1015.4
20260506205416 50 5 0.0 0.0 0.00 0.00 0.00 69 1015.3
20260506204409 50 5 0.0 0.0 0.00 0.00 0.00 70 1015.3
20260506202408 51 5 0.0 0.0 0.00 0.00 0.00 69 1015.1
20260506201408 51 5 0.0 0.0 0.00 0.00 0.00 68 1015.0
20260506200409 52 5 0.0 0.0 0.00 0.00 0.00 68 1014.9
20260506195407 52 5 0.0 0.9 0.00 0.00 0.00 65 1014.9
20260506194408 52 5 0.0 0.9 0.00 0.00 0.00 68 1014.8
20260506193403 53 5 0.0 0.9 0.00 0.00 0.00 66 1014.7
20260506192404 53 5 0.0 0.9 0.00 0.00 0.00 66 1014.6
20260506191403 53 355 0.0 0.9 0.00 0.00 0.00 66 1014.6
20260506190401 53 355 0.0 0.9 0.00 0.00 0.00 65 1014.6
20260506185900 53 25 0.0 0.9 0.00 0.00 0.00 64 1014.5
20260506184405 53 25 0.0 1.7 0.00 0.00 0.00 63 1014.4
20260506183359 54 50 0.0 1.7 0.00 0.00 0.00 63 1014.3
20260506182358 54 61 0.0 0.9 0.00 0.00 0.00 64 1014.4
20260506181359 54 33 0.0 0.0 0.00 0.00 0.00 65 1014.3
20260506180358 54 33 0.0 0.0 0.00 0.00 0.00 64 1014.2
20260506175401 54 33 0.0 0.0 0.00 0.00 0.00 63 1014.1
20260506174842 55 33 0.0 1.7 0.00 0.00 0.00 61 1013.9
20260506173358 55 38 0.0 1.7 0.00 0.00 0.00 62 1013.8
20260506172357 55 9 0.0 2.6 0.00 0.00 0.00 62 1013.9
20260506171356 56 70 0.0 2.6 0.00 0.00 0.00 57 1013.7
20260506170356 55 50 0.0 0.9 0.00 0.00 0.00 59 1013.8
20260506165356 55 81 0.0 0.0 0.00 0.00 0.00 59 1013.7
20260506164356 55 81 0.0 2.6 0.00 0.00 0.00 60 1013.7
20260506163354 55 55 0.0 2.6 0.00 0.00 0.00 60 1013.8
20260506162904 55 13 0.0 1.7 0.00 0.00 0.00 59 1013.8
20260506161354 56 13 0.9 2.6 0.00 0.00 0.00 58 1013.8
20260506160354 56 355 0.0 1.7 0.00 0.00 0.00 57 1013.8
20260506155353 57 33 0.0 1.7 0.00 0.00 0.00 56 1013.8
20260506154352 57 57 0.9 2.6 0.00 0.00 0.00 56 1013.9
20260506153354 57 342 0.9 2.6 0.00 0.00 0.00 55 1013.9
20260506152349 58 20 0.9 2.6 0.00 0.00 0.00 54 1013.9
20260506151350 59 24 0.9 2.6 0.00 0.00 0.00 52 1013.8
20260506150348 59 350 0.9 1.7 0.00 0.00 0.00 50 1013.8
20260506145347 59 53 0.0 2.6 0.00 0.00 0.00 50 1013.8
20260506144347 59 329 0.9 2.6 0.00 0.00 0.00 48 1013.9
20260506143345 58 343 0.0 0.9 0.00 0.00 0.00 50 1013.8
20260506142345 58 351 0.9 3.5 0.00 0.00 0.00 49 1013.8
20260506141344 59 348 0.9 4.3 0.00 0.00 0.00 52 1013.8
20260506140344 59 5 0.9 2.6 0.00 0.00 0.00 49 1013.9
20260506135345 61 22 0.0 2.6 0.00 0.00 0.00 48 1013.9
20260506134342 61 329 0.9 2.6 0.00 0.00 0.00 46 1013.9
20260506133341 61 5 0.9 2.6 0.00 0.00 0.00 52 1014.0
20260506132342 60 53 0.9 1.7 0.00 0.00 0.00 49 1013.8
20260506131340 59 346 0.9 2.6 0.00 0.00 0.00 52 1013.9
20260506130341 59 247 0.9 2.6 0.00 0.00 0.00 54 1014.1
20260506125340 59 16 0.9 2.6 0.00 0.00 0.00 54 1014.1
20260506124340 59 245 0.9 3.5 0.00 0.00 0.00 52 1014.1
20260506123341 59 50 0.9 4.3 0.00 0.00 0.00 55 1014.1
20260506122341 57 17 0.0 2.6 0.00 0.00 0.00 56 1014.2
20260506121340 57 5 0.9 2.6 0.00 0.00 0.00 53 1014.2
20260506120340 57 22 0.9 2.6 0.00 0.00 0.00 55 1014.2
20260506115340 58 330 0.0 2.6 0.00 0.00 0.00 57 1014.3
20260506114341 57 346 0.0 2.6 0.00 0.00 0.00 58 1014.4
20260506113822 57 51 0.9 3.5 0.00 0.00 0.00 58 1014.4